sat.trackr.live / text

‹ back to catalog

QIANFAN-104

NORAD 66046 · 2025-233P

PAYLOAD ACTIVE UNKNOWN

§ Identity

Operator
Country
PRC
Launch date
2025-10-17
Launch site
TAISC
Launch vehicle
Mass (kg)
RCS (m²)

External: N2YO · Heavens-Above · Gunter

§ Orbital elements

Epoch: 2026-09-20T10:20:16.305792Z

Period
106.59 min
Inclination
89.0066°
Eccentricity
0.0001804
Mean motion
13.51026657 rev/d
Perigee alt
1,067.1 km
Apogee alt
1,069.8 km
Semi-major
7,446.6 km
B*
1.0771e-4
RAAN
33.4808°
Arg perigee
102.7620°
Mean anomaly
257.3733°
Rev number
4,609

§ Raw data

QIANFAN-1041 66046U 25233P   26263.43074428  .00000082  00000+0  10771-3 0  99962 66046  89.0066  33.4808 0001804 102.7620 257.3733 13.51026657 46095

JSON: /api/v1/satellites/66046 · /tle

For live sub-satellite position, see the globe view (requires WebGL).

§ Visibility from observer

Set your observer location to see the next 7 days of passes ≥ 10°. The values pass through the URL so the page stays shareable.

No JS? Fill the form by hand. The geolocation button needs JavaScript.